Weather in Florishchi

Russia / Vladimir Oblast     56°18′10″N   39°13′14″E
temp.,
°C
wind,
m/s
gust,
m/s
humid.,
%
clouds,
%
prec.,
mm/h
press.,
hPa
HPBL,
m
28 september, tue
tue2800:00+6ne4792100 0.4 10251029
03:00+5ne4890100 0.6 1027623
06:00+5ne4893100 0.0 1028638
09:00+5ene4885100 0.0 1030737
12:00+8ene456963 0.0 1031949
15:00+9ene355888 0.0 10321122
18:00+6ne227627 0.0 103322
21:00+4ne22825 0.0 103425
29 september, wed
wed2900:00+3n22855 0.0 103516
03:00+2n22895 0.0 103536
06:00+2n249229 0.0 103682
09:00+6n35735 0.0 1035284
12:00+10nne24615 0.0 1035886
15:00+11n3461100 0.0 10341220
18:00+8nne2475100 0.0 1034115
21:00+7nne228412 0.0 103436
30 september, thu
thu3000:00+5n119240 0.0 103510
03:00+6nnw1285100 0.0 103544
06:00+6nw2386100 0.0 103584
09:00+9nnw247532 0.0 1035294
12:00+11nnw236663 0.0 1035650
15:00+13nw226277 0.0 10341060
18:00+11nw227699 0.0 103452
21:00+8nw22875 0.0 103415
1 october, fri
fri100:00+7wnw119241 0.0 103511
03:00+6wnw229413 0.0 103518
06:00+5wnw22955 0.0 103525
09:00+9wnw237841 0.0 1035232
12:00+13wnw226224 0.0 1034747
15:00+14w236083 0.0 1034993
18:00+9wsw22814 0.0 103313
21:00+7w11830 0.0 103412
2 october, sat
sat200:00+6wsw11846 0.0 103412
03:00+5wsw12895 0.0 103414
06:00+5sw22945 0.0 103420
09:00+9sw237727 0.0 1034217
12:00+13sw246214 0.0 1033756
15:00+14sw34565 0.0 1032986
18:00+9ssw227963 0.0 103219
21:00+7s23852 0.0 103356